Rygge, Norway

4:47 AM CEST on April 23, 2018 (GMT +0200)
Rygge Air Base

Weather History for ENRY - February, 2013

Change the Weather History Date:

Monday, February 25, 2013

  Actual Average Record
Temperature  
Mean Temperature 32 °F -  
Max Temperature 39 °F 37 °F 55 °F (1998)
Min Temperature 23 °F 26 °F 10 °F (2005)
Degree Days  
Heating Degree Days 34    
Moisture  
Dew Point 23 °F    
Average Humidity 76    
Maximum Humidity 100    
Minimum Humidity 48    
Precipitation  
Precipitation 0.00 in - - ()
Sea Level Pressure  
Sea Level Pressure 30.57 in    
Wind  
Wind Speed 6 mph ()    
Max Wind Speed 9 mph    
Max Gust Speed -    
Visibility 6.2 miles    
Events      
Averages and records for this station are not official NWS values.
T = Trace of Precipitation, MM = Missing Value Source: Averaged Metar Reports

Daily Weather History Graph

Daily Weather History Graph

Search for Another Location

Airport or City:

Astronomy

Feb. 25, 2013 Rise Set
Actual Time 7:25 AM CET 5:35 PM CET
Civil Twilight 6:43 AM CET 6:17 PM CET
Nautical Twilight 5:56 AM CET 7:04 PM CET
Astronomical Twilight 5:09 AM CET 7:52 PM CET
Moon 5:42 PM CET (2/25) 6:41 AM CET (2/25)
Length of Visible Light 11h 33m
Length of Day
10h 10m
Full, 100% of the Moon is Illuminated
Feb 25
Full
Feb 25
Full
Mar 4
Last Quarter
Mar 11
New
Mar 19
First Quarter

Hourly Weather History & Observations

Time (CET) Temp. Windchill Dew Point Humidity Pressure Visibility Wind Dir Wind Speed Gust Speed Precip Events Conditions
12:20 AM 26.6 °F 20.0 °F 26.6 °F 100% 30.51 in 6.2 mi NNE 5.8 mph - N/A   Unknown
12:50 AM 26.6 °F 21.2 °F 26.6 °F 100% 30.51 in 6.2 mi NNE 4.6 mph - N/A   Unknown
1:00 AM 27 °F - 26 °F 95% 30.53 in 31 mi NNE 4.5 mph - -   Clear
1:20 AM 26.6 °F 20.0 °F 24.8 °F 93% 30.51 in 6.2 mi North 5.8 mph - N/A   Unknown
1:50 AM 26.6 °F 18.2 °F 24.8 °F 93% 30.51 in 6.2 mi North 8.1 mph - N/A   Unknown
2:20 AM 26.6 °F 19.1 °F 24.8 °F 93% 30.51 in 6.2 mi NNE 6.9 mph - N/A   Unknown
2:50 AM 26.6 °F 19.1 °F 24.8 °F 93% 30.51 in 6.2 mi North 6.9 mph - N/A   Unknown
3:20 AM 26.6 °F 18.2 °F 23.0 °F 86% 30.51 in 6.2 mi North 8.1 mph - N/A   Unknown
3:50 AM 26.6 °F 19.1 °F 23.0 °F 86% 30.51 in 6.2 mi North 6.9 mph - N/A   Unknown
4:20 AM 26.6 °F 20.0 °F 23.0 °F 86% 30.51 in 6.2 mi NNE 5.8 mph - N/A   Unknown
4:50 AM 26.6 °F 18.2 °F 23.0 °F 86% 30.54 in 6.2 mi North 8.1 mph - N/A   Unknown
5:20 AM 26.6 °F 18.2 °F 23.0 °F 86% 30.54 in 6.2 mi North 8.1 mph - N/A   Unknown
5:50 AM 26.6 °F 20.0 °F 23.0 °F 86% 30.54 in 6.2 mi North 5.8 mph - N/A   Unknown
6:20 AM 26.6 °F 19.1 °F 23.0 °F 86% 30.54 in - North 6.9 mph - N/A   Clear
6:50 AM 24.8 °F 16.9 °F 21.2 °F 86% 30.54 in - North 6.9 mph - N/A   Clear
7:00 AM 25 °F - 23 °F 87% 30.57 in 34 mi North 6.7 mph - -   Partly Cloudy
7:20 AM 24.8 °F 17.9 °F 23.0 °F 93% 30.54 in - North 5.8 mph - N/A   Clear
7:50 AM 24.8 °F 16.9 °F 23.0 °F 93% 30.57 in - North 6.9 mph - N/A   Clear
8:20 AM 24.8 °F 16.9 °F 21.2 °F 86% 30.57 in - North 6.9 mph - N/A   Clear
8:50 AM 26.6 °F 19.1 °F 23.0 °F 86% 30.57 in - North 6.9 mph - N/A   Clear
9:20 AM 26.6 °F 18.2 °F 23.0 °F 86% 30.57 in - North 8.1 mph - N/A   Clear
10:20 AM 30.2 °F 23.4 °F 23.0 °F 75% 30.57 in - North 6.9 mph - N/A   Clear
10:50 AM 32.0 °F 24.8 °F 23.0 °F 69% 30.60 in - North 8.1 mph - N/A   Clear
11:20 AM 33.8 °F 26.4 °F 24.8 °F 70% 30.60 in - North 9.2 mph - N/A   Clear
11:50 AM 33.8 °F 27.0 °F 23.0 °F 65% 30.60 in - North 8.1 mph - N/A   Clear
12:20 PM 35.6 °F 29.2 °F 24.8 °F 65% 30.60 in - North 8.1 mph - N/A   Clear
12:50 PM 37.4 °F 31.4 °F 24.8 °F 60% 30.60 in - NNW 8.1 mph - N/A   Clear
1:00 PM 37 °F - 24 °F 48% 30.61 in 34 mi North 8.9 mph - -   Partly Cloudy
1:20 PM 37.4 °F 30.8 °F 24.8 °F 60% 30.60 in - North 9.2 mph - N/A   Clear
1:50 PM 39.2 °F 33.6 °F 24.8 °F 56% 30.60 in - NNW 8.1 mph - N/A   Clear
2:20 PM 39.2 °F 33.6 °F 24.8 °F 56% 30.60 in - NNW 8.1 mph - N/A   Clear
2:50 PM 39.2 °F 34.2 °F 24.8 °F 56% 30.57 in - NNW 6.9 mph - N/A   Clear
3:20 PM 39.2 °F 34.2 °F 24.8 °F 56% 30.57 in - NNW 6.9 mph - N/A   Clear
3:50 PM 39.2 °F 35.0 °F 24.8 °F 56% 30.57 in - NNW 5.8 mph - N/A   Clear
4:20 PM 39.2 °F 35.0 °F 24.8 °F 56% 30.57 in - NW 5.8 mph - N/A   Clear
4:50 PM 39.2 °F 35.0 °F 24.8 °F 56% 30.57 in - NNW 5.8 mph - N/A   Clear
5:20 PM 37.4 °F 31.4 °F 23.0 °F 56% 30.60 in - NNW 8.1 mph - N/A   Clear
5:50 PM 35.6 °F 31.7 °F 23.0 °F 60% 30.60 in - NNW 4.6 mph - N/A   Clear
6:23 PM 33.8 °F - 23.0 °F 65% 30.60 in - Variable 2.3 mph - N/A   Clear
6:50 PM 33.8 °F - 23.0 °F 65% 30.60 in - NE 1.2 mph - N/A   Clear
7:00 PM 33 °F - 23 °F 54% 30.61 in 25 mi North 2.2 mph - -   Partly Cloudy
7:20 PM 32.0 °F - 23.0 °F 69% 30.60 in - Variable 1.2 mph - N/A   Clear
7:50 PM 32.0 °F - 23.0 °F 69% 30.60 in - North 2.3 mph - N/A   Clear
8:20 PM 28.4 °F - 21.2 °F 74% 30.60 in - North 2.3 mph - N/A   Clear
8:50 PM 26.6 °F 22.6 °F 21.2 °F 80% 30.60 in - North 3.5 mph - N/A   Clear
9:20 PM 26.6 °F - 21.2 °F 80% 30.60 in - Calm Calm - N/A   Clear
9:50 PM 26.6 °F - 21.2 °F 80% 30.63 in - Variable 2.3 mph - N/A   Clear
10:20 PM 26.6 °F - 23.0 °F 86% 30.63 in - Calm Calm - N/A   Clear
10:50 PM 26.6 °F - 21.2 °F 80% 30.63 in - NNW 2.3 mph - N/A   Clear
11:20 PM 24.8 °F - 21.2 °F 86% 30.63 in - Variable 1.2 mph - N/A   Clear
11:50 PM 23.0 °F - 21.2 °F 93% 30.60 in 6.2 mi NNW 2.3 mph - N/A   Unknown